Zurück zum Katalog

SL-6 DEB

AktivHEO
NORAD 13904·DEBRIS·🇷🇺 Russia

Gestartet Sep 11, 1981 von Plesetsk Cosmodrome

Loading…

Nächste Überflüge (nächste 24 Stunden)

TLE

AktuellSource: Space-Track

Epoche: Sep 14, 2026, 16:15 UTC

1 13904U 81088G   26257.67723954 -.00000024  00000-0 -29213-3 0  9995
2 13904  62.9436 157.9729 4752515 306.9572  18.3171  5.48376163671053

Verfolge SL-6 DEB in Echtzeit mit AllMySat

Download on the App Store